Location: Newark
(42.4197°N, 2.8753°E)
Time: 14:25:55
(UTC+00:00)

N. Korean satellite - Visible Passes

Search period start: 17 November 2019 00:00
Search period end: 27 November 2019 00:00
Orbit: 456 x 506 km, 97.2° (Epoch: 16 November)

Date Brightness Start Highest point End Pass type
(mag) Time Alt. Az. Time Alt. Az. Time Alt. Az.
17 Nov 7.6 05:27:17 10° NNE 05:30:56 51° E 05:34:30 10° S visible
17 Nov 9.2 17:36:52 10° SSW 17:39:52 24° W 17:42:56 10° NW visible
18 Nov 9.1 05:02:21 10° NE 05:05:27 25° E 05:08:30 10° SSE visible
18 Nov 7.6 17:10:52 10° S 17:14:23 51° W 17:18:00 10° NNW visible
19 Nov 10.1 04:38:13 10° ENE 04:39:52 13° E 04:41:30 10° ESE visible
19 Nov 7.0 06:09:58 10° N 06:13:29 42° WNW 06:16:57 10° SW visible
20 Nov 6.6 05:44:27 10° NNE 05:48:10 88° ESE 05:51:49 10° SSW visible
20 Nov 9.9 17:54:59 10° SW 17:57:13 15° W 17:59:28 10° NW visible
21 Nov 8.1 05:19:14 10° NNE 05:22:44 40° E 05:26:11 10° S visible
21 Nov 8.8 17:28:24 10° SSW 17:31:39 30° W 17:34:58 10° NNW visible
22 Nov 9.5 04:54:27 10° NE 04:57:13 20° E 04:59:56 10° SE visible
22 Nov 7.1 17:02:33 10° S 17:06:11 66° W 17:09:54 10° NNW visible
23 Nov 6.7 06:01:43 10° N 06:05:20 54° WNW 06:08:52 10° SSW visible
24 Nov 6.9 05:36:16 10° NNE 05:39:58 69° E 05:43:33 10° S visible
24 Nov 9.6 17:46:15 10° SW 17:48:56 19° W 17:51:39 10° NW visible
25 Nov 8.6 05:11:10 10° NNE 05:14:29 31° E 05:17:44 10° SSE visible
25 Nov 8.3 17:19:58 10° SSW 17:23:24 38° W 17:26:54 10° NNW visible
26 Nov 9.8 04:46:37 10° NE 04:48:55 16° E 04:51:12 10° SE visible
26 Nov 7.3 06:19:06 10° N 06:22:25 32° WNW 06:25:39 10° SW visible
26 Nov 6.7 16:54:17 10° S 16:57:58 84° W 17:01:42 10° NNW visible
